GFSCGP_500_rhum_000.txt.gz
RH
61 59 40 54 70 85 99 88 50 86 84 81 85 30 22 19 18 21 28 25 26 30 29 35 34 32 42 71 83 64 76 74 49 41 65 78 91 91 90 84 92 72 61 55
28 35 44 42 36 77 99 84 71 62 52 68 48 22 18 22 20 25 44 32 81 86 69 71 72 76 100 75 41 46 57 36 36 45 74 83 77 74 68 76 78 72 62 59
36 54 37 22 40 47 90 84 74 55 42 24 23 18 16 21 14 18 44 53 93 98 91 97 92 80 55 44 47 43 43 49 64 79 79 76 70 67 71 76 73 60 53 43
31 22 19 19 21 20 28 68 68 48 25 37 34 37 24 18 23 25 71 86 100 100 99 100 97 75 51 46 48 48 52 64 75 75 71 71 72 76 74 70 55 44 35 33
24 18 18 19 21 18 16 20 27 22 23 30 38 62 50 40 29 42 93 88 99 98 90 100 94 77 62 61 59 63 75 74 72 71 77 76 76 68 52 38 30 36 38 35
22 24 24 26 26 26 23 23 23 22 22 23 26 37 43 44 63 63 98 96 93 58 56 56 72 71 70 68 65 77 73 72 77 75 64 49 35 31 29 30 33 37 32 30
10 10 12 13 14 14 14 15 15 16 17 27 40 65 67 71 81 79 84 54 44 63 86 94 70 83 70 71 74 77 78 78 65 44 34 29 29 29 31 28 27 27 26 25
12 14 16 18 18 20 22 24 26 30 56 94 83 66 67 70 44 49 31 75 85 99 88 60 72 64 62 64 56 36 32 27 20 21 23 24 22 20 20 23 28 30 32 33
28 29 19 20 22 26 27 30 30 31 34 35 35 36 35 34 38 48 99 97 84 76 57 72 73 63 59 34 32 36 23 23 25 27 28 30 28 28 32 35 34 36 36 34
25 24 28 27 29 27 20 16 17 19 20 24 25 25 25 31 36 44 48 47 51 56 75 80 59 41 30 35 37 30 29 31 31 34 39 39 37 36 37 39 39 38 33 20
25 28 30 28 19 18 15 17 19 19 18 20 23 21 26 29 27 29 37 45 66 91 77 52 31 32 38 46 45 46 45 41 45 50 42 37 43 48 47 44 42 28 16 12
29 26 27 21 20 15 16 17 18 19 20 22 21 22 20 21 24 30 39 44 52 100 91 50 39 49 59 56 52 51 48 48 43 36 41 44 46 49 49 46 30 18 14 10
25 25 25 25 20 18 16 14 15 15 16 19 24 23 20 21 23 27 37 49 54 72 77 55 56 64 65 55 50 50 51 49 48 49 44 44 48 52 48 36 21 14 9 7
27 25 25 24 22 18 16 16 18 17 16 17 19 24 23 23 26 31 37 48 63 61 55 60 68 67 52 51 54 53 52 49 42 46 48 51 54 51 37 21 14 9 7 12
27 23 21 20 19 18 20 21 20 19 18 18 18 20 24 30 32 37 37 41 43 48 58 68 58 52 56 58 59 54 44 39 46 48 50 53 53 41 24 16 10 8 12 16
25 22 21 22 23 24 24 23 22 20 19 19 18 19 21 27 29 35 44 52 55 58 65 61 63 66 65 59 51 42 44 45 48 52 58 54 43 28 19 10 8 12 14 16
19 20 19 20 23 24 24 23 22 20 18 19 18 18 21 25 29 37 47 55 64 71 74 76 80 76 69 56 49 44 43 50 54 61 55 42 26 18 11 10 14 17 16 30
18 16 16 19 22 22 22 24 24 19 18 20 21 22 24 28 31 40 45 54 70 82 85 86 83 69 57 50 43 42 48 56 62 56 43 27 18 11 10 16 18 21 23 33
20 16 18 22 22 22 22 24 23 18 20 23 25 33 28 30 36 44 51 56 67 77 82 83 67 55 48 44 40 43 54 64 60 49 36 19 11 10 16 19 25 43 59 71
24 24 24 23 22 21 21 23 23 21 24 28 33 36 33 33 38 47 50 56 70 78 76 66 58 53 47 38 38 43 56 64 57 39 22 12 10 14 19 23 39 61 71 70
23 23 23 23 22 21 22 23 22 21 24 41 42 34 34 36 46 49 54 73 85 83 72 64 59 49 41 40 43 62 71 62 42 20 14 10 13 17 20 24 52 63 65 72
24 23 24 23 23 22 23 23 22 23 26 31 39 33 37 40 47 47 65 82 81 74 68 63 55 49 49 51 66 74 65 47 21 14 11 12 16 18 20 30 59 62 67 74
21 25 24 23 23 23 22 22 22 23 25 46 45 41 39 41 43 54 77 79 74 72 69 65 60 56 66 78 80 68 49 24 16 12 11 13 15 16 20 42 61 59 64 83
25 24 22 22 25 24 24 23 22 23 39 51 43 39 37 43 51 71 67 67 76 75 71 67 63 68 78 81 70 49 24 20 14 12 13 14 13 18 25 55 76 69 74 84
39 29 28 22 26 26 26 26 27 45 50 44 44 38 39 54 76 73 72 80 76 75 74 70 73 80 83 72 48 28 23 16 12 14 15 13 14 24 34 60 79 70 66 85
44 45 44 42 45 32 32 41 47 42 41 42 32 32 53 84 83 80 90 92 92 84 77 78 87 87 73 50 31 28 20 14 13 15 16 14 20 36 44 47 67 68 69 85

GFSCGP_500_rhum_003.txt.gz
RH
33 61 62 54 55 37 40 49 58 76 71 58 20 19 20 19 19 23 24 26 22 39 47 39 56 60 55 70 63 65 76 82 80 52 58 57 90 97 97 84 86 76 64 36
27 41 33 69 98 92 83 40 49 27 45 43 20 17 16 12 10 14 24 57 52 67 71 98 98 100 100 83 60 63 55 40 40 50 54 74 88 84 70 73 74 67 46 32
20 22 71 85 75 82 89 73 77 62 41 26 17 16 13 16 21 19 31 71 76 81 79 95 97 86 82 92 90 77 67 65 62 58 65 63 74 80 82 76 59 41 28 26
60 38 36 35 25 42 72 83 82 73 63 54 24 20 20 21 27 38 53 88 100 73 98 79 84 73 100 93 76 64 62 61 58 59 73 80 83 80 65 46 36 32 31 33
39 30 23 20 20 21 23 60 68 69 55 57 29 21 19 20 28 52 78 100 74 97 95 86 76 78 81 84 72 58 60 63 68 79 85 83 66 47 38 34 35 41 42 41
25 19 20 20 20 19 19 20 27 40 50 39 26 26 22 29 72 100 100 98 77 96 71 61 74 94 97 77 69 67 77 81 80 71 51 44 41 40 41 40 40 36 33 38
22 22 23 24 29 28 29 27 26 24 23 23 25 22 19 30 56 80 83 77 80 72 92 98 96 89 71 65 70 76 74 58 47 48 50 46 42 36 34 31 26 25 26 25
11 13 14 16 17 19 19 19 19 22 26 38 32 40 57 55 47 39 37 42 49 48 95 83 64 59 73 72 62 41 34 35 41 41 36 32 30 29 28 26 22 23 28 32
16 19 20 21 21 21 23 25 26 30 31 29 26 23 26 24 25 26 32 31 49 54 45 46 61 57 51 45 34 38 45 53 48 40 38 36 35 32 28 24 32 35 36 41
18 25 22 24 27 26 23 17 17 18 17 17 16 16 16 18 18 19 21 25 30 37 38 40 51 68 55 46 46 50 56 58 52 47 43 41 37 30 28 34 32 29 31 38
22 25 28 28 22 14 14 16 20 19 19 20 18 18 18 18 17 17 18 20 22 22 26 30 35 44 51 56 60 66 64 54 50 48 50 42 33 33 32 29 28 34 40 45
28 28 28 26 18 15 17 17 16 15 16 16 17 18 18 19 20 21 21 20 20 22 25 29 36 48 76 79 75 64 58 60 59 54 45 37 33 32 31 37 48 52 50 39
25 25 26 22 20 19 17 14 15 17 17 17 17 16 16 17 20 22 24 25 24 26 31 34 39 51 59 58 56 62 71 70 61 50 40 36 35 29 36 50 52 53 39 26
24 28 27 26 24 20 18 16 17 18 18 18 18 16 15 16 18 21 25 27 28 32 38 39 46 53 63 68 76 82 80 69 50 42 40 36 29 32 38 50 54 42 31 23
25 26 25 27 25 23 21 19 21 21 20 18 17 16 18 20 23 25 27 29 31 35 39 40 46 62 92 94 93 88 67 52 49 46 38 32 36 39 51 57 43 29 21 11
28 28 26 23 22 22 22 23 24 23 22 21 17 17 22 27 37 37 32 31 32 38 44 50 62 77 87 94 81 67 61 59 51 41 40 39 44 54 61 45 32 21 11 11
32 26 23 20 19 19 20 22 23 23 23 22 18 19 24 36 42 40 35 32 35 38 43 46 54 75 79 76 74 70 67 54 48 48 44 47 55 60 46 36 20 10 12 16
36 34 25 19 18 16 20 22 23 23 23 22 20 20 23 35 40 37 33 33 36 42 46 49 62 68 77 78 74 67 61 59 54 49 50 61 54 44 38 22 11 12 16 20
36 37 33 24 20 19 19 23 24 23 22 24 23 22 22 25 34 38 35 37 42 48 47 40 60 81 81 77 73 71 64 58 53 55 64 54 46 39 24 14 11 13 16 20
34 36 36 29 23 20 21 23 24 23 22 24 24 22 21 23 43 45 42 43 45 45 35 58 79 82 80 76 72 69 64 60 61 67 56 49 40 26 17 12 13 13 16 25
25 29 30 30 26 20 23 25 25 23 24 23 24 22 21 36 53 50 45 42 39 34 51 69 78 83 84 87 78 70 66 66 71 62 51 41 28 19 12 13 12 14 19 41
24 20 25 29 27 21 25 22 24 24 23 24 25 24 26 50 50 46 41 33 36 48 74 82 91 99 96 76 68 72 74 75 66 53 42 30 21 14 13 13 12 20 28 54
36 41 32 29 26 24 24 22 23 23 24 30 28 27 38 41 42 39 32 32 45 71 86 99 100 97 80 73 79 81 83 73 56 42 31 23 15 14 15 12 16 27 32 58
42 56 46 43 41 39 31 28 26 28 33 30 28 36 41 44 39 36 31 44 79 80 88 100 97 84 84 91 93 90 79 60 42 32 23 16 13 16 16 14 31 39 39 53
36 38 36 27 33 30 30 38 42 38 31 29 38 44 42 43 41 41 57 84 90 88 96 97 90 94 93 94 96 86 60 41 32 24 16 14 14 18 18 29 44 47 46 58
51 50 39 30 39 34 41 45 39 37 42 45 42 42 43 53 64 76 92 99 93 94 94 98 100 100 99 100 85 63 45 33 25 15 14 15 19 21 28 39 44 53 74 78

GFSCGP_500_rhum_006.txt.gz
RH
95 94 91 76 71 41 31 55 95 61 17 20 21 24 24 21 21 21 20 21 21 18 33 48 47 53 65 59 58 68 75 97 95 66 55 41 43 65 92 81 74 66 67 70
44 70 77 70 62 23 26 43 58 40 31 23 44 29 17 13 12 11 12 23 50 47 40 30 65 77 82 66 68 80 54 47 46 50 49 55 58 63 62 69 74 71 55 34
31 43 46 52 38 74 82 40 54 62 46 29 29 19 16 15 17 16 20 29 42 34 61 81 85 89 74 71 56 48 54 68 74 64 63 69 72 72 70 65 48 32 30 32
39 59 49 63 85 78 77 74 57 76 79 68 59 37 20 16 16 23 33 42 47 82 65 97 76 76 56 44 53 86 96 68 61 59 66 71 72 61 46 40 35 35 40 49
30 28 41 55 48 42 58 40 58 79 68 75 65 41 19 15 22 30 40 45 54 53 74 77 100 68 56 84 100 95 56 59 63 67 74 68 47 46 50 56 66 72 65 48
36 41 50 39 31 22 23 27 36 52 55 40 18 18 16 22 29 30 49 67 73 72 47 57 63 75 98 97 74 53 85 85 72 65 49 48 55 58 58 52 44 40 38 34
31 29 22 21 21 21 21 21 22 23 23 21 21 20 18 19 30 57 62 63 66 42 42 51 68 59 57 51 53 75 73 68 50 40 41 48 54 53 45 38 39 38 32 27
37 31 22 20 21 24 26 27 27 24 20 19 21 24 29 37 35 34 35 32 32 30 33 38 42 39 38 48 67 63 53 43 37 41 48 51 46 44 46 44 39 34 30 30
11 13 14 14 17 20 20 22 23 25 25 26 22 17 18 19 20 20 20 23 21 20 22 26 30 33 37 38 41 48 45 43 51 50 44 47 54 53 48 42 37 36 35 27
13 16 26 26 25 24 25 27 25 20 17 16 17 17 17 17 18 18 19 20 20 19 19 19 20 21 22 25 30 35 35 46 53 52 54 59 56 53 45 43 42 39 33 34
18 26 26 27 27 28 22 16 18 20 19 19 19 20 19 17 18 20 20 22 25 26 26 24 22 21 22 24 25 31 47 54 58 59 61 60 59 52 50 48 42 41 39 36
30 27 27 30 29 18 15 18 19 16 16 16 16 16 15 14 14 16 19 25 26 25 25 26 25 24 25 28 35 43 52 58 65 70 71 64 58 56 52 46 48 43 37 40
24 26 28 27 22 16 18 17 16 16 18 18 17 15 15 15 18 21 31 32 31 31 29 28 28 28 30 35 39 42 47 68 88 80 69 64 62 57 54 55 46 41 41 45
27 26 28 28 24 24 23 20 18 17 18 19 19 17 16 16 21 24 30 38 39 36 32 31 31 32 35 39 38 49 61 71 80 76 71 66 64 64 60 51 42 43 46 41
26 26 26 25 27 26 22 21 20 19 20 20 21 20 18 16 18 22 32 35 37 38 35 33 34 36 41 41 47 42 70 81 81 78 72 73 71 63 52 43 46 49 42 26
28 28 28 26 27 25 23 21 22 22 22 22 21 22 21 20 19 20 22 27 32 40 41 39 37 40 43 42 43 66 80 86 84 82 81 75 56 51 46 48 51 46 27 20
30 29 28 27 28 25 20 20 20 20 21 22 22 22 22 23 22 21 22 23 33 45 47 44 41 43 45 50 57 79 88 89 90 89 68 51 50 50 50 50 52 32 22 12
26 30 30 26 25 21 17 19 18 19 20 23 23 23 22 22 23 22 21 22 39 48 49 46 45 50 56 54 73 84 89 94 89 66 57 57 55 58 58 55 36 23 13 12
21 26 31 33 30 24 24 21 18 18 22 24 25 24 23 24 24 24 23 26 44 50 50 50 51 52 47 69 87 94 94 82 70 68 63 60 63 64 56 34 23 13 12 13
21 19 24 30 30 23 24 26 27 26 20 26 24 25 25 24 23 26 28 29 46 51 56 55 40 40 69 82 84 84 81 78 78 74 74 75 71 57 33 23 13 12 14 12
31 31 25 22 18 14 23 26 28 25 25 22 24 25 24 26 26 31 32 37 53 55 50 38 36 62 87 90 88 89 92 87 86 87 84 76 59 32 22 13 12 14 16 12
16 21 29 32 28 22 28 27 27 27 26 27 27 27 28 28 37 33 38 54 51 46 44 49 73 95 97 92 93 95 89 90 90 88 80 56 30 20 13 12 14 18 16 23
15 28 28 35 38 42 40 41 43 44 41 38 35 34 37 52 43 44 46 43 43 51 67 84 100 100 99 100 100 94 98 95 88 80 45 24 19 12 13 14 18 20 24 35
13 18 19 24 32 38 34 30 34 35 36 38 44 53 50 46 50 47 40 43 66 78 88 100 100 100 100 100 100 99 96 91 78 34 20 16 11 13 15 18 25 28 33 37
11 16 19 15 21 23 33 42 45 42 45 50 54 52 55 56 48 45 67 77 97 99 100 100 100 100 100 100 100 97 91 66 25 18 15 11 15 16 18 26 34 36 41 56
20 30 24 19 29 28 33 42 50 52 64 60 60 65 65 49 51 78 78 95 96 100 100 100 100 100 100 100 99 92 57 22 16 14 11 16 20 18 23 34 41 44 42 42

GFSCGP_500_rhum_012.txt.gz
RH
98 98 98 99 91 87 65 55 66 50 37 24 35 42 47 68 58 50 50 28 23 21 22 25 45 53 57 49 48 63 78 61 53 52 45 39 48 55 67 60 51 53 56 49
98 97 99 98 82 72 45 60 87 60 40 46 50 52 46 39 27 24 20 28 29 24 18 22 26 28 32 62 76 76 77 72 60 46 57 59 71 64 50 38 40 45 42 39
100 87 96 96 88 77 51 86 93 97 66 47 42 30 27 22 22 23 23 23 21 20 24 38 59 64 63 59 69 75 72 56 39 37 38 82 51 28 34 42 43 44 47 56
97 80 92 87 81 74 73 63 76 94 87 78 57 82 24 24 26 29 27 26 24 28 44 54 49 41 37 35 40 40 36 33 25 24 23 23 27 39 69 73 68 72 71 64
85 54 55 70 77 64 67 52 26 43 59 62 52 38 67 23 29 36 26 27 31 41 60 54 50 31 25 23 24 20 19 20 21 20 21 23 30 34 38 42 48 51 51 54
90 93 76 59 48 71 67 45 88 91 80 53 28 29 76 22 29 22 21 25 38 50 47 32 22 17 18 18 18 18 19 19 19 19 20 22 24 26 27 30 31 37 44 54
71 72 50 48 47 37 62 59 46 40 40 34 23 21 16 19 23 26 23 38 33 26 22 20 17 17 18 19 20 20 20 20 20 20 21 23 26 28 27 28 34 42 50 64
71 34 40 48 47 53 62 37 26 24 22 39 22 18 22 29 31 31 24 19 18 17 18 19 21 22 24 26 25 24 24 24 24 25 26 28 27 25 29 29 38 52 54 55
29 30 33 32 34 32 25 22 25 26 22 20 22 23 20 18 17 15 15 17 19 21 23 24 24 26 29 30 30 29 29 30 32 32 35 58 33 37 34 29 56 57 55 53
31 29 29 29 27 24 24 20 18 19 21 22 19 19 17 15 16 17 18 19 18 20 26 28 30 34 35 34 34 36 37 38 40 39 39 40 41 36 29 39 58 64 65 66
9 9 10 12 14 16 17 19 24 28 20 19 20 20 19 19 17 16 15 14 17 22 29 30 34 32 30 30 32 36 41 43 44 44 43 44 40 39 40 55 69 72 75 70
9 10 12 14 15 20 23 26 27 19 21 19 17 17 17 17 16 16 15 16 18 20 21 20 21 22 24 24 26 32 40 44 47 48 48 45 47 44 48 72 78 79 76 74
12 11 12 14 22 23 27 26 17 19 20 16 16 19 18 19 19 19 19 19 19 19 18 20 21 22 22 22 23 24 36 47 53 54 51 47 41 38 68 85 84 81 80 70
15 15 21 26 30 30 27 20 17 18 16 17 18 20 20 19 20 22 22 22 22 22 22 23 23 24 24 24 24 25 29 46 59 57 51 41 36 62 86 89 85 78 68 59
14 18 26 30 27 29 25 20 16 18 21 20 21 22 23 21 20 20 21 21 22 23 24 24 25 26 26 27 28 32 36 47 58 56 46 44 65 89 91 88 81 72 64 50
13 20 24 25 25 25 25 23 19 20 24 23 24 22 22 20 20 19 18 18 22 24 25 25 26 28 30 31 33 42 48 54 58 50 56 76 94 96 91 98 86 69 57 48
16 21 24 24 24 21 17 20 22 24 26 26 24 24 22 20 21 22 23 25 27 27 27 29 31 33 33 35 45 54 58 58 53 65 88 98 99 96 93 95 88 77 51 48
20 20 19 21 24 19 20 23 25 25 26 26 26 28 29 29 30 32 32 30 30 30 30 34 37 40 42 57 59 60 56 57 75 94 100 100 99 94 93 94 84 60 49 44
18 19 18 17 18 17 19 20 22 24 26 30 30 29 28 29 30 30 30 34 40 49 52 50 48 54 66 60 60 58 56 74 97 100 100 100 100 98 92 87 71 50 48 21
18 24 23 22 21 16 18 20 20 19 17 18 22 24 27 30 34 43 47 51 49 50 50 50 64 64 64 64 58 66 93 100 100 100 100 100 99 100 94 86 61 52 31 6
6 6 7 9 9 7 11 13 13 16 19 18 19 22 27 35 36 39 41 46 48 50 60 67 72 76 67 54 54 80 99 100 100 100 100 100 100 100 95 73 60 42 14 6
10 9 9 9 9 10 12 9 11 11 10 12 15 16 17 21 27 35 42 48 57 73 84 84 66 52 60 83 98 100 100 100 98 100 100 100 100 99 85 67 53 21 8 13
11 12 10 10 10 9 8 7 8 9 9 11 13 17 24 32 37 48 61 74 87 90 90 68 62 87 88 89 93 100 100 99 95 100 100 100 100 99 87 63 36 11 10 18
11 10 9 8 9 7 6 7 7 9 13 18 22 29 40 57 79 78 82 87 83 76 72 74 91 92 99 92 100 96 100 100 100 100 100 100 100 89 70 55 20 9 17 19
8 7 7 6 7 6 10 13 16 20 26 35 46 58 69 75 72 67 65 63 70 78 86 92 93 95 76 84 100 100 100 100 100 100 100 100 98 73 59 31 10 14 21 20
7 6 6 8 13 15 20 34 44 48 51 53 55 58 62 66 64 60 77 80 81 89 97 93 94 90 99 100 100 100 100 100 100 100 100 100 91 71 29 12 13 21 23 23

GFSCGP_500_rhum_015.txt.gz
RH
97 100 100 100 96 99 93 82 75 78 38 50 82 46 16 33 59 57 54 52 34 30 29 30 38 50 55 50 43 41 52 82 82 65 64 45 28 19 19 24 34 40 36 35
89 95 100 100 98 96 88 86 90 59 28 43 42 91 34 51 59 40 45 34 27 34 37 37 46 41 41 52 43 63 65 73 60 65 36 24 18 18 19 22 24 25 26 30
98 100 100 97 98 95 92 78 99 89 62 36 96 99 35 35 34 28 30 37 32 27 30 40 39 49 68 60 51 42 42 51 45 27 21 18 18 19 20 19 18 21 26 27
98 93 100 96 100 100 98 62 90 68 94 82 44 79 94 26 18 24 31 31 31 32 36 38 43 52 54 34 26 21 23 24 20 19 19 18 18 18 18 19 19 19 19 26
97 94 89 100 99 62 98 85 59 54 72 99 83 64 90 59 27 27 43 42 35 32 37 35 50 44 29 20 19 18 18 18 19 19 19 19 22 26 26 25 26 26 26 26
89 84 69 97 60 53 45 56 40 30 95 88 78 97 79 92 62 31 31 28 27 29 29 44 39 26 19 17 18 20 21 21 21 22 23 28 32 33 34 34 38 36 33 34
99 85 81 81 71 35 39 78 96 85 95 74 95 71 48 99 75 44 22 20 18 19 36 29 19 16 18 19 23 27 27 27 27 28 30 32 34 35 39 72 54 45 39 34
80 65 45 40 56 98 44 100 92 95 86 75 83 63 66 55 31 21 17 23 28 28 18 16 18 20 20 26 29 29 28 29 32 34 36 37 39 41 46 79 46 43 38 30
100 100 76 28 44 55 100 51 54 61 31 25 30 65 76 24 21 20 16 16 15 16 19 20 24 25 27 27 25 23 24 27 31 35 37 41 43 45 48 49 48 42 36 32
81 97 47 28 30 29 31 40 27 26 26 24 77 79 73 28 16 15 16 17 18 17 15 17 23 23 21 20 19 20 21 25 28 30 35 38 44 49 60 55 50 43 36 44
40 36 36 27 24 57 26 23 22 28 41 29 22 62 45 20 19 18 16 16 14 14 15 17 18 19 19 19 20 22 24 25 26 25 25 26 32 43 57 54 48 44 49 89
10 9 9 28 9 11 14 18 20 23 25 21 21 24 19 18 16 16 16 16 17 17 18 18 19 20 20 21 22 22 24 25 27 28 29 32 37 46 55 51 51 59 91 92
13 11 9 9 10 12 18 25 27 27 20 18 19 26 16 16 18 18 19 20 21 22 22 22 22 23 24 24 25 25 26 28 31 32 34 40 49 55 56 56 70 92 93 84
13 12 12 14 97 62 24 26 28 20 14 18 16 17 17 16 19 19 21 21 21 20 20 20 21 24 26 27 27 28 30 34 36 38 48 56 59 60 61 81 95 93 89 80
10 12 14 18 22 29 24 26 25 16 15 17 19 22 22 23 22 21 20 20 20 20 22 25 28 30 30 28 30 34 36 39 45 59 62 62 58 71 90 95 94 93 92 89
13 14 16 22 29 26 23 24 24 21 20 20 22 23 28 25 22 23 24 24 27 32 36 36 36 32 32 34 40 46 49 52 67 63 66 58 72 92 97 100 100 97 95 98
20 13 17 21 25 23 18 22 25 26 26 28 26 27 26 22 23 26 28 32 34 36 34 33 37 50 59 59 56 56 63 68 66 66 61 70 94 100 100 100 96 98 97 99
20 15 20 21 24 22 22 24 26 26 27 30 27 28 28 26 30 28 30 28 31 34 42 52 57 55 54 57 61 72 67 71 67 58 65 99 100 100 97 90 88 92 100 100
23 22 23 20 20 20 19 16 21 23 24 23 20 24 24 21 24 30 23 33 40 44 42 40 43 50 55 68 71 78 74 59 73 90 88 100 100 100 100 90 87 100 100 100
22 24 23 23 20 16 13 17 15 13 15 8 14 16 18 20 24 35 25 26 26 26 30 39 46 56 68 85 88 73 73 93 88 97 100 100 100 100 100 100 100 100 100 100
9 7 6 6 6 6 7 7 8 10 12 11 11 12 12 14 18 15 16 19 26 36 45 60 75 91 94 87 80 83 92 72 99 93 100 100 100 100 100 100 100 100 100 100
11 11 11 10 10 10 10 8 8 8 7 7 7 7 6 8 11 14 22 31 48 66 73 78 73 65 76 80 86 81 84 77 98 100 83 96 100 100 100 100 100 99 99 82
10 11 11 11 12 10 8 7 6 6 6 6 6 8 10 15 21 29 42 61 73 72 66 58 61 79 78 79 85 86 98 85 100 100 100 100 100 100 100 100 100 100 82 52
11 12 12 11 9 8 6 6 6 5 5 8 12 18 29 40 50 56 53 60 62 54 55 78 80 80 85 85 89 87 86 100 100 100 100 100 100 100 100 100 99 86 65 32
14 14 13 11 9 7 7 5 7 9 13 26 42 46 46 48 45 45 43 46 58 69 73 75 81 85 92 97 94 97 100 100 100 100 100 100 100 100 100 100 84 52 19 15
16 14 14 9 7 8 7 8 15 30 43 42 32 28 25 31 39 45 64 72 71 71 74 78 84 93 95 100 100 100 100 100 100 100 100 100 100 100 87 49 22 16 17 19

GFSCGP_500_rhum_021.txt.gz
RH
54 78 89 80 99 73 95 96 98 87 90 47 49 60 91 31 5 14 25 59 15 14 14 12 10 8 10 39 28 38 60 64 25 24 20 20 18 18 18 17 20 21 23 26
72 84 73 86 89 94 98 94 96 82 96 59 90 81 51 11 15 13 13 51 15 11 12 10 10 7 12 12 25 52 70 55 25 17 17 17 17 19 19 20 22 21 25 28
87 80 98 99 77 100 100 96 100 97 89 28 51 74 56 35 38 25 18 19 13 11 14 12 12 10 10 13 30 70 37 23 17 17 18 19 20 20 22 23 25 26 27 30
90 75 92 97 94 92 93 99 88 78 71 37 54 64 90 99 85 75 36 16 13 15 15 15 14 13 12 14 58 40 24 16 17 21 24 21 20 22 24 24 26 28 30 32
93 88 90 70 86 65 100 88 92 87 93 98 83 93 92 82 73 100 83 38 19 14 14 17 18 20 18 19 28 33 16 17 20 25 23 21 21 20 20 20 21 22 23 23
87 82 73 57 80 95 82 55 70 78 70 92 64 83 96 71 89 68 88 69 40 25 24 20 19 31 41 28 20 17 17 18 24 23 20 21 23 22 21 21 22 23 24 26
92 87 95 75 73 51 71 33 20 16 54 27 72 83 94 83 96 70 39 40 57 27 18 18 27 42 27 17 20 21 21 22 24 23 20 20 19 20 22 23 25 27 30 32
79 74 53 67 86 98 75 37 48 52 76 65 97 96 92 89 78 69 46 58 42 18 17 23 20 17 21 18 17 17 19 20 20 19 19 20 22 23 25 27 29 32 36 36
44 82 89 85 97 94 64 71 81 75 90 87 75 76 77 66 70 76 62 39 16 15 21 18 19 17 15 15 15 16 17 18 21 22 23 24 25 28 31 33 36 42 45 48
76 82 80 98 81 48 34 72 74 63 42 15 21 60 68 85 91 71 26 18 18 17 17 16 15 15 16 18 20 19 20 21 21 23 27 33 35 36 37 40 72 66 58 70
88 90 89 77 84 52 30 33 37 30 27 18 18 56 86 77 59 46 25 19 18 17 17 16 16 16 19 20 21 20 19 21 33 42 41 39 39 50 50 64 71 65 71 68
96 76 34 27 38 35 28 25 72 56 34 20 12 17 37 63 58 65 42 18 17 16 16 15 16 18 19 20 23 28 29 27 30 40 42 51 63 63 63 66 67 68 72 64
41 16 18 27 26 18 31 23 25 15 10 20 17 21 26 24 26 25 22 19 17 17 17 18 17 16 18 21 30 42 48 34 36 49 62 61 53 53 56 67 74 74 65 75
22 20 18 14 10 18 16 41 30 15 13 16 22 23 25 22 20 17 15 15 18 21 19 17 16 15 14 19 27 48 64 71 58 40 46 44 44 51 70 88 79 66 71 66
11 9 11 13 13 15 13 43 99 28 20 19 27 22 21 22 22 21 13 13 14 21 27 24 18 34 41 35 55 86 81 73 47 41 50 51 60 76 88 72 71 77 78 76
11 10 9 8 10 11 13 29 43 41 31 25 26 26 24 19 17 17 19 21 24 29 38 35 29 24 26 74 60 80 63 49 44 58 75 75 75 72 74 80 83 84 88 90
18 13 12 13 12 12 12 16 27 28 34 36 31 30 30 30 18 16 20 26 32 31 31 44 40 35 23 18 18 31 33 53 74 84 75 60 69 85 88 95 95 87 90 99
36 36 23 21 14 13 15 18 26 29 31 29 25 20 21 24 25 28 23 18 17 16 15 21 22 23 18 22 34 53 68 76 69 57 59 81 83 90 85 96 93 92 92 92
81 52 45 28 21 16 16 21 27 30 28 26 24 22 23 29 23 21 18 18 16 10 8 7 9 18 37 57 71 73 72 66 63 74 78 78 84 88 94 100 100 100 100 100
29 28 24 22 22 14 17 21 21 24 19 21 23 22 16 16 16 15 12 10 8 8 8 14 33 47 48 44 45 51 55 69 74 76 79 83 83 97 100 100 100 100 100 100
21 23 22 20 18 19 18 18 16 10 11 11 10 10 9 7 8 7 6 6 6 13 30 43 44 33 29 37 44 64 75 79 80 84 76 90 93 100 100 100 100 100 100 100
10 11 12 11 11 10 11 10 11 11 10 9 9 8 7 7 7 8 6 7 19 45 47 31 26 36 52 58 81 88 85 89 82 88 79 85 92 100 100 100 100 100 100 100
11 11 11 11 12 10 9 10 9 9 10 11 10 9 8 7 6 7 14 32 42 37 24 29 54 62 69 85 83 78 77 75 67 53 50 38 43 51 87 100 100 100 100 94
12 12 12 14 13 11 10 10 10 10 14 13 12 11 9 8 11 19 37 41 35 27 23 41 72 79 76 70 72 74 67 42 18 7 7 7 14 44 81 98 100 92 50 37
17 15 15 14 13 11 10 10 10 10 14 13 13 12 10 13 26 39 40 37 29 30 39 63 72 70 68 70 69 56 32 11 4 4 4 5 8 16 62 68 46 39 46 48
15 14 15 13 14 13 14 17 18 19 19 16 16 14 18 30 39 43 39 38 43 50 71 74 70 70 67 63 44 22 7 4 4 4 5 6 9 28 50 52 56 62 71 64

GFSCGP_500_rhum_024.txt.gz
RH
61 56 55 68 99 94 98 92 82 94 95 99 62 51 58 56 14 27 39 55 19 13 10 12 16 20 23 50 27 34 68 59 54 31 19 21 18 18 19 20 20 20 22 26
48 55 66 95 93 95 98 69 90 72 60 87 69 48 55 60 14 39 29 32 48 44 13 10 11 13 18 23 29 56 66 38 31 18 18 19 20 21 21 21 23 25 26 26
70 66 78 96 95 90 83 97 88 93 74 94 84 63 51 48 31 68 56 18 15 9 11 11 11 12 12 17 22 82 60 51 16 17 20 23 23 23 24 26 27 26 25 25
78 61 89 99 90 70 74 89 75 83 99 94 29 66 35 29 40 61 70 45 14 18 19 15 13 13 12 21 71 50 62 32 21 45 23 25 25 25 27 26 23 23 23 23
89 63 74 96 87 82 80 78 84 99 87 42 65 71 86 75 78 56 70 65 69 31 22 17 21 19 31 58 58 42 35 28 30 38 22 26 27 27 23 20 21 22 23 24
75 64 72 96 100 81 68 70 86 84 92 75 68 84 70 95 99 85 72 71 37 32 26 14 18 24 52 58 74 28 24 24 25 26 26 22 20 19 20 21 20 20 23 26
78 68 76 76 84 92 74 55 60 62 75 92 90 52 52 96 83 78 78 50 31 32 19 18 22 21 49 54 56 23 21 22 20 18 18 18 19 20 19 19 23 30 31 31
74 83 92 95 78 48 50 72 39 36 26 32 60 24 48 93 93 85 53 59 64 23 16 20 21 33 28 51 24 28 16 17 18 19 20 20 19 20 27 32 34 34 35 47
72 86 84 58 56 46 64 70 61 48 43 49 88 70 68 68 70 36 63 30 17 18 18 19 18 24 44 32 20 25 21 21 21 20 20 20 24 29 33 36 39 42 58 64
42 92 99 100 82 89 48 85 98 84 72 73 41 22 23 23 38 78 63 28 21 20 18 16 16 18 19 20 19 19 20 20 22 27 30 33 32 34 41 47 52 62 68 66
68 98 71 65 69 87 54 31 60 97 86 36 22 29 23 27 36 49 39 35 21 18 18 17 18 20 21 20 19 19 20 24 33 44 54 55 61 63 58 58 56 57 64 75
89 78 81 84 91 56 44 32 32 36 41 48 22 18 35 44 65 54 26 21 18 18 16 17 18 20 19 21 21 22 27 38 45 69 93 84 78 68 48 44 55 66 81 83
79 93 98 83 54 54 25 38 28 43 83 67 19 19 34 27 32 35 20 16 17 15 14 16 17 16 16 18 22 43 48 43 60 91 96 92 72 50 41 58 75 82 69 69
86 79 29 17 26 31 17 18 48 33 12 11 12 24 40 27 26 24 18 15 15 15 15 14 12 12 10 10 16 11 20 42 86 85 74 42 39 50 67 66 59 66 69 71
87 46 30 22 20 13 14 9 22 17 64 63 17 23 34 30 18 15 15 12 11 12 16 18 12 8 8 10 11 28 60 98 96 60 34 44 59 65 60 57 66 69 69 71
51 41 33 11 10 12 14 14 11 22 97 96 50 30 32 29 23 19 19 16 16 19 18 14 12 13 15 11 13 70 56 44 39 39 49 58 61 53 59 68 69 72 69 68
17 17 16 13 11 9 9 9 11 19 65 34 28 26 27 28 25 22 24 28 30 28 25 24 27 20 14 11 10 12 22 38 46 43 38 41 52 70 75 75 63 59 60 69
29 29 19 15 16 12 18 15 14 16 22 32 33 29 29 32 32 32 31 26 22 20 20 17 15 11 9 10 14 29 43 40 33 36 45 71 79 75 62 58 54 54 57 100
27 96 90 46 34 27 27 19 15 20 31 29 29 28 29 30 28 23 18 16 17 18 16 12 9 8 10 21 40 44 34 35 46 59 82 79 69 70 63 93 100 79 96 71
40 73 75 62 49 41 32 22 18 27 26 26 25 25 24 21 16 15 11 12 10 10 9 8 8 9 27 42 32 26 42 59 67 84 74 68 80 100 70 60 100 86 18 28
17 25 29 31 25 21 23 22 18 22 25 27 20 15 15 14 11 9 8 8 8 8 7 9 18 37 40 30 25 45 63 71 75 69 76 85 67 35 10 8 15 8 11 33
11 11 18 26 25 23 22 22 18 14 12 13 14 13 11 10 10 10 10 10 8 8 11 26 40 38 31 27 37 71 85 84 83 83 74 46 18 8 4 5 5 7 8 12
10 12 13 13 13 12 12 12 11 12 15 14 12 11 10 11 12 13 13 11 10 12 24 36 41 36 33 43 65 83 86 83 80 66 42 22 6 4 5 6 6 6 10 30
12 12 13 13 13 11 12 12 11 11 12 12 13 13 13 16 18 18 16 14 15 24 38 43 42 46 52 67 86 83 79 75 62 41 19 7 5 5 5 5 6 8 24 45
14 14 17 15 16 16 14 13 11 11 10 10 10 12 18 27 31 27 21 18 23 38 48 52 61 68 79 84 82 80 77 62 45 21 7 5 5 5 6 7 9 16 38 41
19 22 23 20 18 15 14 13 12 11 11 11 13 18 29 39 41 32 21 26 44 53 58 64 76 86 89 89 83 78 66 45 18 7 6 6 6 7 8 10 13 35 52 71

GFSCGP_500_rhum_027.txt.gz
RH
52 52 73 99 93 78 79 63 83 80 73 54 42 67 53 29 27 35 56 56 42 17 16 15 16 19 29 32 25 28 54 49 41 25 16 17 18 18 19 20 20 22 23 22
45 58 58 72 69 86 99 100 96 56 38 36 33 46 64 21 30 24 47 50 40 26 16 13 14 13 13 20 25 45 68 46 44 17 18 19 21 22 23 24 22 20 20 20
50 70 61 62 83 99 96 88 72 65 77 65 21 35 52 19 58 66 56 18 21 13 14 14 17 26 25 24 38 93 83 70 74 27 25 25 52 38 25 21 18 19 20 21
54 62 77 90 99 83 70 84 71 57 65 69 39 35 32 10 35 66 70 71 30 19 14 14 15 22 33 42 74 90 81 89 81 57 44 75 75 60 23 19 19 20 22 22
48 62 69 75 90 74 84 71 85 59 86 85 46 36 38 40 50 68 60 77 94 39 24 27 22 23 30 50 77 95 66 85 76 53 63 71 61 26 17 18 21 21 21 24
51 39 52 84 71 66 78 78 87 78 83 73 52 73 62 43 58 56 54 67 57 40 27 24 25 26 29 53 51 97 51 60 47 33 60 54 22 18 18 19 20 23 27 28
43 42 62 64 86 76 69 59 63 78 70 74 89 68 56 68 66 57 56 44 36 38 29 30 24 27 27 50 68 80 37 44 40 17 27 27 20 19 20 22 25 27 25 25
46 48 53 58 88 90 79 65 53 52 60 64 46 20 58 45 77 72 59 41 40 50 18 17 23 32 33 27 65 50 42 49 24 20 24 21 22 21 29 35 41 45 38 33
67 65 71 89 87 88 66 52 54 51 42 35 37 52 59 42 53 68 39 42 36 17 16 20 19 21 21 33 37 30 21 20 21 21 22 21 24 43 40 34 42 45 32 31
62 76 86 90 81 73 68 73 66 58 58 45 46 62 47 43 75 64 39 56 20 18 19 18 18 18 17 20 23 21 23 24 23 22 22 23 31 35 36 51 55 49 46 42
46 40 72 87 73 85 79 87 96 60 73 62 60 32 26 20 15 16 32 45 38 22 19 19 18 18 19 21 24 26 25 24 24 24 31 41 69 62 64 64 58 44 47 57
33 31 42 62 97 74 84 60 93 52 28 53 32 15 29 22 17 15 18 32 37 36 29 20 18 19 20 22 24 26 28 28 31 29 54 82 93 94 80 74 50 52 73 75
40 31 34 64 83 79 68 45 45 27 21 15 33 56 20 34 20 14 15 16 19 23 20 20 19 20 22 19 21 23 41 64 78 96 99 92 98 88 80 62 64 86 82 74
58 45 48 56 65 90 80 74 43 33 42 29 19 16 25 22 24 19 22 17 15 16 18 19 19 20 15 30 38 57 79 93 94 100 70 88 79 78 64 64 67 66 69 82
70 75 79 86 54 25 25 30 25 14 12 16 16 26 20 21 25 22 21 18 15 15 17 18 17 17 26 36 48 82 99 100 62 25 22 44 42 54 41 44 53 71 73 68
47 88 91 100 39 28 26 20 16 10 12 11 12 38 30 23 31 29 25 23 21 22 20 16 12 12 13 10 17 17 46 11 7 14 36 45 38 29 44 55 69 68 74 78
37 43 38 31 28 21 11 10 12 13 11 12 13 20 39 36 27 28 31 28 26 21 17 13 12 10 8 6 6 6 6 9 18 37 42 35 30 48 57 71 68 66 59 83
31 31 23 21 20 12 10 10 11 11 12 11 14 14 25 27 25 23 20 21 22 19 15 12 9 7 6 6 6 7 9 20 34 38 29 26 48 63 74 76 73 60 56 63
67 35 23 17 29 59 35 28 22 21 18 15 17 23 30 30 29 29 28 24 19 12 10 8 7 6 7 7 7 8 18 34 37 30 29 53 76 88 80 72 66 54 46 50
34 34 30 31 53 80 81 66 48 36 22 15 19 30 32 30 26 25 16 12 10 9 9 9 9 9 8 8 10 22 33 39 33 33 55 87 90 77 69 64 55 31 11 7
31 29 36 26 31 22 29 44 42 32 23 28 37 33 30 25 15 12 12 12 13 12 12 12 12 11 10 13 22 36 42 40 45 54 78 85 78 76 69 52 28 10 6 5
29 32 12 14 18 20 32 33 27 27 29 36 30 18 15 13 14 15 16 15 14 16 20 19 17 16 18 26 41 46 51 58 66 82 87 84 82 70 51 26 8 6 6 7
38 12 11 11 12 16 17 17 18 19 21 18 16 16 16 16 17 16 14 20 27 31 35 29 20 19 30 42 52 57 67 82 92 90 90 85 76 56 23 9 7 8 8 9
14 10 10 11 12 13 13 16 18 18 17 16 16 15 14 14 16 18 22 29 39 44 38 26 23 31 45 52 59 65 78 89 95 97 95 88 60 27 12 8 8 8 9 10
14 13 14 13 14 14 14 18 19 18 16 16 15 14 15 16 17 22 33 47 53 46 34 29 32 44 55 65 71 84 97 100 100 96 86 65 36 14 9 9 9 10 11 13
17 18 17 18 26 21 22 21 18 16 16 15 15 14 15 15 16 27 52 61 59 47 35 36 48 61 69 76 88 100 100 98 97 88 67 41 18 10 9 9 10 13 15 18

GFSCGP_500_rhum_030.txt.gz
RH
50 58 58 58 86 83 78 65 70 85 83 68 67 56 35 37 48 56 96 60 23 20 17 18 25 40 38 35 25 41 69 52 45 29 16 20 40 33 19 17 16 17 18 16
52 56 56 62 72 84 72 72 88 99 93 57 51 58 27 18 36 34 61 82 28 21 24 20 19 18 20 19 25 38 75 64 66 34 20 18 23 19 19 20 19 18 16 16
44 55 55 52 74 100 84 92 98 100 63 77 45 33 44 25 31 52 41 45 31 38 19 18 17 16 17 19 21 39 66 60 57 58 16 16 26 28 39 55 24 19 18 18
50 62 58 45 67 95 100 92 96 100 85 70 76 59 46 25 72 63 75 60 38 21 18 21 23 19 17 16 16 46 78 65 72 74 49 30 52 67 90 76 21 18 19 19
44 58 38 65 74 69 89 75 67 68 60 49 57 42 45 17 21 64 61 80 68 37 20 21 34 41 32 16 18 50 89 92 77 69 67 42 75 95 82 75 44 20 21 22
48 49 59 59 58 58 66 61 51 46 46 44 53 45 40 47 56 88 87 66 77 64 20 25 31 45 38 20 23 60 97 84 72 77 71 44 44 61 58 58 50 35 32 41
46 52 52 56 65 67 57 57 54 53 51 48 60 45 44 68 59 60 74 64 57 50 34 36 27 27 26 22 30 48 92 98 70 76 78 42 24 28 32 34 31 38 52 50
38 47 56 53 75 74 59 58 62 56 58 65 54 38 30 64 35 68 68 73 49 49 33 27 37 21 36 30 35 49 92 98 63 59 44 24 20 27 30 27 63 81 82 87
38 44 51 66 76 85 81 78 70 61 58 58 47 36 30 52 50 48 56 53 43 53 53 18 16 18 18 18 36 46 64 60 32 22 22 19 20 19 54 78 77 82 96 100
44 62 61 76 90 80 76 77 74 63 49 44 43 44 37 43 47 52 47 66 51 38 16 16 17 17 17 16 17 32 32 16 18 20 20 18 20 46 65 65 96 100 91 67
54 67 80 75 81 98 77 52 51 70 70 70 49 35 62 42 30 34 60 70 53 44 19 19 19 18 18 17 18 17 16 19 21 21 24 30 68 80 80 95 91 69 52 54
23 54 69 62 86 96 77 64 71 73 58 74 57 17 41 25 22 24 26 21 36 55 39 22 21 19 18 19 19 18 32 27 30 45 61 77 79 75 69 38 41 37 44 45
37 47 52 52 52 65 64 67 68 53 42 40 14 10 24 66 34 23 20 17 17 32 32 28 26 23 23 22 21 41 53 66 62 71 79 79 79 57 20 16 32 45 45 46
49 46 36 34 40 71 71 67 64 55 49 28 20 35 34 28 24 31 17 21 18 19 21 21 25 26 28 24 43 64 66 64 63 73 69 74 73 13 20 35 40 40 40 52
39 38 46 48 73 79 67 52 61 52 51 33 17 12 15 16 34 45 18 21 25 25 22 19 18 21 21 22 36 46 42 38 35 48 76 71 29 24 36 38 39 40 54 63
42 45 39 59 77 77 78 26 16 19 20 16 8 7 13 12 46 44 27 26 25 24 23 24 23 20 19 11 9 8 7 6 7 6 7 10 24 34 38 49 56 70 80 77
62 48 47 94 92 98 78 22 19 17 8 8 8 10 12 10 12 48 58 41 29 28 27 26 25 20 11 8 7 7 7 8 7 7 9 22 36 48 62 94 98 95 89 90
53 37 36 68 68 48 22 13 12 11 10 10 10 11 13 12 13 23 32 33 28 26 25 23 16 10 8 8 9 9 10 10 9 10 17 30 40 42 65 78 78 87 90 95
51 85 75 38 29 19 12 15 24 50 26 19 16 17 16 14 19 29 32 29 26 24 20 14 10 11 12 12 11 13 14 13 12 15 24 40 45 48 68 76 86 95 95 100
23 67 95 58 44 12 16 24 62 71 46 39 30 26 16 18 30 32 30 28 25 16 12 12 13 13 13 18 24 23 18 16 16 23 36 51 59 66 77 92 96 99 94 85
21 46 75 62 50 27 27 18 27 27 30 41 39 26 18 22 30 30 26 17 14 14 14 13 12 15 28 35 32 25 21 21 25 36 53 60 66 82 95 98 100 99 94 80
36 61 89 74 40 23 18 14 18 24 25 27 28 24 22 28 22 16 17 17 15 14 13 16 26 39 44 41 34 29 26 30 36 52 62 68 84 98 100 100 96 91 73 37
32 35 44 34 34 25 12 12 20 22 26 24 25 23 16 15 16 15 14 14 13 14 17 28 40 47 51 47 38 32 33 42 61 69 77 90 100 100 95 92 89 65 34 18
44 28 29 30 39 15 13 14 16 15 16 15 15 15 15 15 15 15 15 15 16 18 19 31 46 58 60 48 37 38 47 60 68 74 85 92 88 88 91 90 77 48 18 11
69 44 37 30 21 12 16 18 17 16 18 20 19 17 17 17 17 16 17 18 20 22 28 44 58 62 54 43 44 55 67 74 77 80 81 83 87 86 85 75 45 19 11 11
84 55 56 44 18 16 16 17 18 21 23 21 20 20 21 21 21 21 20 19 20 24 34 48 62 62 52 53 64 74 80 83 82 81 85 82 80 80 66 40 16 12 12 14

GFSCGP_500_rhum_033.txt.gz
RH
27 28 42 37 30 73 86 89 89 73 97 96 81 57 75 60 54 86 71 25 22 24 23 23 28 39 52 48 45 50 65 64 55 41 25 18 35 65 61 21 17 19 20 18
28 24 26 36 37 58 67 73 82 75 79 95 82 69 38 48 44 64 75 58 26 24 25 26 30 42 49 39 28 43 62 53 46 42 22 16 34 42 38 18 19 22 22 18
29 31 28 46 69 84 55 62 85 76 86 73 49 60 53 43 52 70 78 75 40 36 22 25 25 26 26 22 26 35 52 54 57 49 35 18 18 61 59 32 42 71 54 26
34 36 31 45 54 71 83 41 75 90 90 70 45 39 53 33 69 84 99 40 29 23 19 17 16 16 16 15 16 38 91 97 72 80 89 51 38 48 60 84 97 88 74 71
35 40 27 39 51 89 94 84 93 83 77 75 59 46 55 31 66 67 91 100 72 23 23 22 22 20 20 15 14 19 49 90 92 100 99 99 80 52 59 60 83 66 54 71
19 39 34 38 50 64 87 80 79 77 68 62 55 53 44 28 30 64 82 82 99 99 47 29 25 21 19 16 16 18 21 69 95 100 94 85 81 64 31 27 37 37 58 63
17 33 45 44 47 49 71 76 72 64 55 49 53 44 59 63 57 61 68 75 84 86 90 34 22 38 31 20 24 21 37 66 92 93 96 87 71 49 34 19 39 74 83 95
9 23 47 49 42 49 64 71 63 60 61 56 52 44 59 52 44 52 44 63 69 66 65 47 28 39 37 23 24 28 41 71 94 96 96 48 30 27 18 22 55 73 87 94
11 15 42 47 49 49 56 74 69 62 60 51 46 47 44 40 31 49 64 75 70 66 49 50 40 38 32 30 45 48 43 60 97 95 39 30 31 26 35 53 79 98 93 90
19 24 32 45 44 56 69 77 78 68 52 44 39 40 47 43 40 42 51 52 73 64 50 27 24 19 19 20 20 22 38 25 35 37 30 28 38 46 69 83 86 94 60 41
13 22 55 42 42 59 73 70 73 60 53 51 52 43 60 46 46 43 42 72 76 75 64 31 20 20 20 19 18 19 19 20 20 31 64 67 60 66 75 82 95 86 88 71
17 22 59 62 67 69 72 72 72 57 55 64 52 38 54 41 53 35 22 25 28 39 49 71 52 24 24 22 21 21 21 21 30 70 72 76 78 78 83 84 83 77 65 22
22 24 34 67 64 59 68 76 74 68 68 49 47 36 12 17 23 40 31 20 20 20 27 28 44 41 37 31 26 25 24 33 88 81 89 85 76 64 72 74 93 63 39 34
31 26 24 25 38 62 54 63 97 87 52 44 38 38 21 28 29 30 23 16 16 16 21 24 30 34 29 25 23 25 26 45 55 73 56 32 38 46 32 35 20 15 27 29
38 26 31 33 39 44 46 45 55 51 45 33 43 36 27 13 11 15 11 12 33 15 19 22 26 26 22 21 22 26 31 30 28 12 10 15 15 48 18 13 18 25 32 38
73 41 35 35 39 48 57 48 52 61 63 22 19 16 19 10 9 10 12 16 41 21 24 28 26 20 21 22 21 22 16 10 8 10 10 11 12 11 11 16 28 38 42 68
88 65 47 43 39 50 38 47 56 89 57 27 16 12 8 9 10 11 10 11 16 41 31 24 25 26 25 24 21 12 9 10 10 12 15 18 16 14 14 20 38 46 61 84
84 85 85 70 62 32 44 74 71 42 19 18 22 20 10 10 10 14 13 12 16 27 33 30 28 27 24 15 11 12 12 14 17 22 25 22 20 19 22 31 47 61 71 80
89 81 77 82 52 13 25 39 34 33 18 33 70 67 36 22 17 18 14 16 22 31 31 30 28 18 13 13 13 13 16 22 32 33 29 26 24 25 31 45 61 68 81 99
77 78 79 68 42 28 29 35 26 34 20 38 46 55 50 36 26 21 14 22 29 31 29 20 14 14 14 14 15 19 28 38 40 40 35 30 30 33 43 56 67 78 97 100
74 75 66 61 27 39 40 38 34 26 17 17 19 22 34 41 30 20 17 27 31 22 15 14 14 13 14 15 17 25 38 45 50 45 36 35 36 47 60 69 78 91 94 88
60 66 64 45 25 37 59 52 30 21 12 14 21 23 25 28 28 22 29 22 16 15 13 13 13 14 15 16 20 27 35 44 50 43 41 42 50 61 67 73 79 79 77 74
88 79 72 63 39 54 54 32 34 12 11 15 19 22 24 25 27 19 17 16 15 14 14 15 15 16 16 19 23 30 42 54 53 48 46 51 60 66 72 74 75 81 79 80
90 85 68 75 61 44 37 32 31 12 12 13 14 16 16 16 16 16 16 16 16 18 19 19 19 19 20 25 32 42 55 58 55 51 54 61 67 72 75 76 81 83 81 83
84 74 67 86 76 29 28 30 21 11 12 14 15 16 17 18 17 17 19 20 23 24 23 22 22 24 35 54 62 54 57 59 58 58 62 69 77 80 77 74 77 79 80 75
94 85 76 94 62 40 41 34 21 13 15 16 16 19 22 21 20 21 23 25 27 27 27 27 28 31 41 54 54 54 64 67 66 72 77 82 88 86 78 80 88 87 78 63

GFSCGP_500_rhum_036.txt.gz
RH
10 17 20 26 28 24 55 91 100 95 72 100 87 97 90 89 94 52 42 28 32 31 29 30 34 42 45 42 45 47 43 44 57 43 40 34 35 35 32 62 42 21 19 19
11 18 24 22 23 28 55 80 97 78 80 100 97 88 82 78 65 89 43 29 24 28 28 31 38 49 49 46 51 56 69 67 61 48 31 21 23 52 74 51 23 21 20 21
11 17 28 32 54 50 45 72 68 62 69 100 94 82 71 60 42 52 78 71 32 24 22 27 41 49 56 47 37 41 69 66 52 50 50 26 29 46 54 57 33 26 31 49
12 14 32 39 52 62 58 38 52 52 77 100 60 99 59 49 45 61 38 60 42 34 33 20 32 27 30 27 23 27 35 40 68 68 62 64 21 28 60 81 84 89 98 99
19 14 35 33 51 58 65 54 41 52 91 84 74 73 91 45 46 77 76 30 32 22 21 21 19 17 14 14 14 13 14 27 48 64 60 77 79 35 70 78 59 39 55 78
15 14 34 28 43 54 58 57 63 75 86 80 69 62 98 65 41 63 70 78 63 50 29 17 18 19 18 20 19 17 17 22 42 78 89 99 97 92 90 92 84 46 30 60
20 16 33 38 36 48 47 58 91 100 96 84 58 52 84 62 38 54 40 76 79 66 64 73 58 21 16 17 22 19 21 29 88 55 96 98 96 96 98 89 56 31 29 67
22 20 22 41 46 53 50 61 85 100 77 99 63 51 82 60 46 35 40 45 61 76 83 83 80 73 60 24 33 32 31 25 94 46 97 100 97 62 48 32 32 47 67 88
29 32 16 38 43 55 48 47 58 61 59 60 66 58 58 50 36 34 34 51 45 74 87 81 82 57 50 44 46 43 37 42 50 94 98 94 76 43 34 52 70 81 87 86
34 32 19 27 45 55 58 55 59 57 59 64 83 60 85 66 50 40 38 51 68 71 78 91 66 67 73 63 43 25 31 28 24 56 85 40 34 70 84 89 90 88 87 91
34 28 34 17 28 52 52 45 56 71 61 59 54 59 48 73 60 50 44 40 54 53 74 74 65 25 23 23 24 21 19 19 20 20 19 22 48 94 97 94 90 82 86 90
31 26 34 39 30 45 54 57 60 65 64 53 55 42 51 61 64 47 59 44 33 46 78 90 85 64 26 22 22 21 21 22 22 21 22 62 87 97 96 47 47 80 85 72
33 24 26 28 31 41 52 50 59 68 70 52 52 52 46 34 15 42 44 26 23 23 23 23 22 45 67 56 41 38 34 27 21 23 42 62 65 69 37 24 40 79 54 25
39 34 25 18 22 71 65 68 81 94 84 66 54 58 60 64 36 28 30 38 39 33 18 15 19 20 21 38 45 34 27 23 29 53 55 47 40 32 34 32 37 47 47 32
32 30 22 18 23 48 46 53 56 61 57 65 62 54 52 48 52 26 14 14 16 11 16 26 18 27 32 32 29 25 23 26 42 58 57 44 27 17 38 38 23 18 18 20
30 30 25 24 31 39 56 40 47 39 38 35 43 50 30 18 22 20 10 10 12 11 16 28 24 36 37 33 27 24 32 47 58 35 12 13 15 18 21 26 23 22 22 23
37 33 35 24 28 44 30 30 34 36 40 47 48 43 21 18 14 10 8 9 11 12 12 15 38 42 41 39 36 35 31 24 13 13 13 15 17 24 32 31 28 27 27 29
48 47 47 45 47 30 28 36 54 63 71 66 57 22 19 31 38 16 10 10 11 14 13 14 22 38 39 39 33 28 18 13 13 13 16 20 25 34 39 40 35 32 31 37
84 78 67 58 29 22 27 31 55 91 55 49 27 26 23 49 59 44 18 17 17 16 15 19 32 39 36 32 23 15 14 14 14 16 18 21 29 42 45 42 39 37 39 48
99 85 91 74 45 16 29 26 27 42 15 59 37 20 19 26 28 46 42 30 23 16 23 33 34 32 23 15 15 14 13 14 14 15 18 24 31 38 45 46 44 44 51 56
87 92 72 69 52 26 22 36 67 66 34 57 27 14 13 16 18 20 36 34 22 20 29 30 22 15 15 13 13 14 15 15 16 19 23 30 41 51 53 50 49 52 59 64
85 86 67 65 59 31 40 32 44 75 57 33 19 10 11 16 18 19 27 29 24 30 24 16 15 13 14 15 16 17 17 18 22 31 37 42 50 55 56 57 57 59 61 68
100 94 75 62 48 58 59 39 54 77 47 31 18 10 12 14 19 20 22 24 24 16 15 14 15 17 19 19 19 20 21 24 29 42 54 47 53 64 63 60 58 60 68 74
88 100 94 96 75 83 82 59 48 58 35 28 17 10 12 12 15 17 16 16 15 15 15 17 20 22 23 22 22 24 26 30 36 44 43 46 56 64 64 61 66 68 71 74
95 99 95 93 92 81 77 93 65 42 29 26 20 10 13 14 15 15 16 17 17 17 18 20 23 24 22 22 26 30 33 36 44 46 48 60 70 71 66 63 65 66 68 70
89 90 94 84 100 100 84 91 63 29 25 24 21 12 15 16 16 17 20 21 21 22 23 23 22 22 24 28 36 41 42 43 50 60 69 70 70 66 64 65 66 73 73 71

GFSCGP_500_rhum_042.txt.gz
RH
62 45 21 10 9 55 93 97 94 86 69 70 76 95 95 70 81 46 63 29 23 24 54 29 56 41 32 27 29 25 37 42 46 32 38 40 47 56 74 85 81 86 87 94
66 52 38 10 11 42 79 86 99 98 88 54 52 73 92 80 63 29 42 53 22 18 20 21 20 25 29 24 31 33 37 40 51 44 41 39 36 44 74 96 88 100 97 68
70 58 44 12 10 12 14 36 80 92 98 89 51 61 96 91 65 59 22 34 42 18 13 13 14 15 25 27 35 33 25 20 25 42 36 38 34 24 20 20 44 91 87 80
71 68 37 13 11 14 20 54 97 89 96 73 98 86 81 96 67 58 30 21 37 45 16 12 13 22 21 26 31 24 13 12 12 15 21 42 50 55 42 26 51 76 58 32
64 82 36 16 15 19 71 70 86 66 60 82 99 88 96 90 81 80 56 55 61 38 34 35 21 12 13 12 12 12 12 13 13 13 17 25 28 55 79 82 49 58 66 75
77 75 70 18 17 22 87 67 95 62 33 70 75 97 96 98 95 96 88 80 60 52 46 47 36 40 27 15 13 13 13 15 23 24 36 50 72 80 81 98 90 97 71 81
74 82 88 27 17 21 36 58 53 80 89 66 83 100 98 99 91 98 80 62 23 33 50 42 29 45 56 72 74 62 56 42 28 38 73 92 97 92 87 90 99 96 99 98
74 85 58 30 15 36 34 46 53 73 88 94 98 75 67 74 67 84 48 50 37 31 29 33 36 24 36 61 61 60 49 47 41 42 63 93 93 72 81 83 89 94 95 90
79 86 77 57 29 28 72 36 70 82 98 95 87 88 88 71 72 42 40 40 43 47 34 25 32 20 21 44 63 52 44 42 40 23 21 48 42 23 75 23 19 27 56 87
95 97 93 97 74 26 26 84 66 90 94 96 89 78 96 90 99 89 44 39 33 34 35 32 70 88 63 43 46 50 42 50 28 25 27 29 20 23 71 21 20 30 64 65
94 95 92 97 95 49 27 24 50 72 96 96 63 68 80 92 73 100 61 40 31 34 42 34 36 53 59 67 96 81 38 49 61 88 67 34 21 25 43 24 22 39 59 58
92 94 88 95 98 64 46 16 39 89 63 76 72 48 99 99 99 88 52 37 28 16 14 39 46 73 76 84 85 57 50 63 72 58 38 71 78 77 37 34 44 78 68 87
100 91 96 86 100 92 45 26 94 69 91 76 92 83 82 79 56 58 43 40 33 23 23 28 47 41 49 71 95 84 57 34 69 65 94 82 96 73 60 53 67 66 78 53
100 94 83 71 77 94 85 87 63 83 73 47 71 44 57 87 68 61 96 49 31 28 27 23 14 23 20 21 28 43 34 25 23 47 64 88 90 67 61 74 76 72 46 28
99 77 92 98 91 90 100 98 72 90 99 98 84 79 43 60 81 74 96 97 57 38 26 31 29 22 23 19 13 11 14 14 19 28 70 63 54 83 95 74 59 32 29 22
100 88 90 90 100 97 92 100 99 73 64 64 84 87 96 93 94 93 100 92 52 34 20 24 28 14 7 8 8 10 20 40 31 37 42 42 62 76 73 52 24 16 16 18
100 85 100 84 89 96 69 88 96 94 99 100 100 100 84 81 100 96 90 65 33 25 14 14 13 10 7 8 10 12 14 25 38 38 48 63 62 41 26 15 15 16 16 17
100 98 100 99 97 75 48 77 63 80 73 72 75 84 100 82 75 80 84 73 34 9 10 14 45 44 17 10 10 13 15 18 36 54 53 42 36 20 16 17 19 18 18 18
95 87 79 75 76 67 61 68 49 47 38 38 59 79 93 88 86 63 44 42 22 18 22 28 35 51 40 14 14 16 16 16 28 42 43 37 19 17 18 18 19 19 19 22
100 95 95 87 90 78 70 60 44 53 37 42 99 80 72 87 95 70 39 17 19 14 13 15 16 34 47 33 20 17 17 24 37 39 34 18 17 18 20 20 20 23 28 31
100 100 89 90 94 88 74 67 53 54 44 69 100 98 70 100 85 25 16 19 15 11 13 14 14 17 36 33 23 18 28 34 37 24 19 18 19 22 23 22 21 20 27 38
100 100 100 97 82 80 98 93 65 81 69 98 71 98 94 60 43 18 17 21 13 10 12 13 14 17 28 24 19 23 33 29 18 17 18 21 23 23 19 19 19 23 42 50
98 98 100 100 73 74 96 93 87 99 100 100 96 95 90 50 32 27 32 28 15 10 11 12 15 18 22 22 25 30 19 16 16 18 21 24 23 20 20 20 29 50 59 55
99 99 97 99 85 86 98 96 90 100 99 91 100 100 61 44 32 43 48 33 16 10 10 11 15 22 22 23 19 17 16 17 18 20 22 23 23 22 22 46 69 73 70 66
89 86 100 95 98 100 96 99 100 93 96 88 100 100 82 44 32 52 61 34 22 12 11 12 14 16 17 16 16 16 16 17 19 22 26 27 26 29 58 88 89 86 80 83
84 84 94 97 100 99 96 98 94 100 90 96 95 100 78 70 63 39 42 38 26 21 13 13 15 16 18 19 20 20 21 23 26 29 31 32 40 48 76 86 76 94 100 100

GFSCGP_500_rhum_045.txt.gz
RH
83 67 58 46 35 8 6 23 79 98 96 66 94 65 48 92 62 38 24 52 19 23 59 60 30 26 24 33 28 43 69 54 35 45 37 47 63 72 68 79 92 96 70 80
65 72 54 54 38 10 6 13 72 100 89 72 81 59 54 75 75 67 46 26 44 15 14 13 16 16 17 26 29 25 28 47 54 35 38 35 38 53 70 90 96 97 86 94
71 79 62 60 40 11 7 7 53 81 96 83 82 73 80 76 68 69 58 19 29 32 14 12 10 9 13 23 29 22 13 12 13 16 24 28 42 43 35 28 30 47 85 98
61 87 71 68 49 12 8 10 15 70 69 62 86 59 93 67 67 63 77 37 28 36 27 24 12 12 16 13 11 10 10 10 11 11 10 17 20 32 39 57 56 35 60 77
69 82 70 67 37 15 12 11 22 30 50 47 70 61 85 92 74 53 92 65 34 38 29 29 29 21 12 10 10 10 10 11 12 8 9 36 37 40 36 57 66 73 77 61
73 82 68 70 37 16 16 13 50 65 79 52 33 87 95 90 96 92 77 69 31 23 33 33 33 35 43 26 11 10 13 16 19 22 19 27 41 57 86 85 71 84 83 88
66 80 71 72 80 23 17 14 31 52 50 22 40 64 53 99 100 88 61 38 23 23 23 23 28 31 34 47 42 47 40 34 33 30 26 30 50 72 87 70 66 61 77 92
74 81 77 71 78 23 21 23 34 40 45 33 70 73 98 93 100 71 56 52 25 28 26 25 22 28 26 29 46 43 40 29 20 19 18 18 17 54 54 37 40 25 28 88
78 68 88 82 76 31 27 24 52 46 36 48 76 93 98 73 97 87 84 58 54 43 30 29 24 24 34 37 69 70 59 43 47 33 20 16 17 24 20 16 41 19 19 28
84 85 96 94 85 55 37 42 64 47 35 52 88 90 95 99 92 80 85 68 64 44 37 29 28 27 66 71 66 48 86 64 42 60 69 56 34 32 36 18 42 30 21 21
92 92 95 96 87 60 45 32 42 95 61 94 84 94 96 99 72 100 84 54 47 30 32 30 29 39 60 57 89 62 69 92 98 97 95 100 87 36 66 25 51 43 32 33
89 97 86 83 94 98 99 44 34 37 57 63 51 36 96 74 85 87 100 67 52 32 26 19 20 16 30 26 28 38 28 34 54 80 88 75 79 92 99 94 95 71 51 57
96 84 100 95 89 100 80 72 64 61 40 74 93 29 95 78 63 96 82 80 48 36 28 24 31 23 25 29 22 26 19 32 42 84 98 81 100 94 98 100 98 70 69 77
100 90 68 59 77 99 95 65 74 61 31 25 42 25 39 78 99 96 93 99 58 86 38 31 28 28 23 18 20 14 25 45 58 73 74 45 31 62 89 92 71 72 97 75
99 76 63 69 80 98 97 98 72 54 43 46 53 60 45 49 86 93 82 75 60 91 46 49 28 23 23 28 26 25 24 14 21 15 16 30 35 58 67 47 40 73 77 79
99 65 70 62 83 98 93 81 95 77 83 72 80 93 100 51 86 86 72 95 71 93 86 45 29 23 16 16 18 9 8 17 12 10 24 42 42 41 42 44 75 86 81 35
98 82 89 62 85 98 87 63 69 73 99 93 54 66 56 100 74 95 88 70 92 95 80 49 34 20 10 8 16 12 15 21 28 27 21 24 35 41 52 66 78 42 17 15
95 100 90 74 100 98 36 62 78 66 86 88 93 97 97 98 97 99 95 94 76 77 28 36 16 9 12 18 31 40 44 24 20 12 15 16 29 50 42 32 29 17 16 17
97 100 100 93 75 65 61 56 85 84 66 78 57 84 79 99 100 92 78 98 100 94 55 72 16 18 16 16 18 34 46 32 15 16 18 20 23 28 32 31 17 16 17 19
100 100 100 84 90 56 42 77 77 86 53 65 71 67 84 60 63 86 86 75 77 75 57 32 20 13 12 14 14 15 29 39 30 26 17 19 27 32 31 18 16 17 20 21
99 100 100 89 81 70 68 88 95 88 48 78 88 66 51 73 100 84 69 64 85 90 53 20 20 11 11 12 13 13 24 33 28 20 18 27 33 31 18 17 17 20 23 24
92 99 100 100 93 87 92 98 96 84 81 97 99 81 92 86 78 45 42 100 90 55 24 22 22 12 10 11 12 13 19 26 21 21 30 37 33 20 18 19 21 25 28 25
91 81 93 100 99 94 100 100 96 100 96 68 71 82 72 96 88 99 78 55 58 30 25 25 26 18 10 10 11 11 15 20 20 23 32 28 19 18 20 22 25 28 27 28
90 82 83 100 100 100 100 94 97 98 94 93 99 74 98 97 80 65 91 53 40 33 31 36 36 23 12 10 10 12 17 19 19 23 20 18 18 19 22 26 28 30 33 37
46 41 57 97 96 100 97 72 96 100 99 99 89 86 100 84 70 66 50 45 34 32 41 54 47 28 18 12 12 14 15 15 16 17 18 20 21 22 24 27 32 36 40 60
67 45 57 70 73 94 91 96 100 94 100 98 99 100 87 80 60 85 68 66 59 46 33 40 50 33 24 16 15 16 16 18 20 25 27 27 27 28 32 41 51 66 90 99

GFSCGP_500_rhum_048.txt.gz
RH
87 61 78 80 56 46 20 8 15 20 59 94 67 66 52 53 70 83 46 45 15 23 40 35 22 25 32 31 51 48 65 82 79 80 81 82 68 70 83 88 90 92 80 86
76 66 92 77 59 53 28 8 16 22 55 91 98 76 59 43 58 84 53 26 35 14 13 16 16 14 21 29 24 37 50 46 44 39 41 56 77 71 76 88 89 72 65 80
56 90 75 68 65 59 30 9 9 28 50 60 54 60 77 44 60 86 52 21 26 29 14 13 14 15 26 27 20 12 16 18 20 25 29 29 32 41 57 68 79 89 85 90
49 82 72 65 71 63 51 13 9 13 28 34 61 45 58 60 49 55 74 65 31 26 29 31 16 14 17 14 11 11 9 8 9 9 16 18 26 30 33 34 38 30 35 64
53 76 80 75 78 66 36 16 10 12 14 18 28 54 45 59 59 64 80 81 51 35 36 29 30 25 13 11 11 11 12 10 10 8 14 34 33 41 36 56 73 81 79 60
62 78 63 63 75 69 28 17 15 16 15 16 34 40 36 65 71 70 60 70 55 35 41 34 31 27 34 41 44 19 15 21 18 18 17 18 28 47 63 68 65 60 78 91
54 57 67 76 73 63 43 20 25 21 14 15 37 20 24 57 46 57 78 52 35 27 34 39 31 31 28 33 47 53 44 39 36 34 32 28 41 45 58 61 61 55 51 84
57 66 70 74 82 82 68 41 16 13 18 26 18 17 40 47 47 51 49 63 37 31 32 30 32 33 32 29 26 41 49 47 40 36 29 27 23 21 32 48 47 36 40 44
42 43 72 85 100 88 76 52 25 32 16 18 28 27 52 59 72 68 43 45 57 46 34 29 32 31 43 71 38 28 37 48 42 39 35 25 19 23 31 34 38 58 22 42
42 45 78 96 95 80 74 64 41 44 23 17 18 42 66 69 60 53 48 64 49 52 43 32 28 30 46 54 97 81 78 75 69 55 47 45 34 33 42 68 36 29 57 37
43 49 72 96 81 79 77 57 37 48 45 27 18 48 82 87 89 83 92 69 87 78 50 30 25 23 20 27 60 72 97 96 92 76 92 93 91 87 86 93 89 72 91 67
29 55 53 69 87 87 83 73 45 39 39 31 29 24 78 72 84 62 56 83 79 57 47 33 26 21 18 20 22 32 50 69 70 69 76 93 93 96 85 77 97 96 96 93
34 33 43 58 83 82 87 83 62 53 42 32 24 19 44 75 56 84 69 53 84 87 45 38 52 33 26 20 17 17 19 22 36 93 90 95 94 97 96 94 95 95 92 84
40 29 34 24 60 76 84 92 79 73 58 44 28 20 29 56 53 93 80 100 93 64 47 47 48 78 35 24 19 19 19 17 21 53 48 71 96 79 63 66 89 70 68 57
100 46 47 37 54 85 85 90 97 78 67 57 51 43 26 30 51 48 67 89 94 80 75 55 47 64 44 27 25 27 26 23 22 23 28 42 49 49 76 57 51 44 41 63
79 99 78 43 51 69 92 82 84 83 82 81 82 47 55 56 68 66 98 75 84 83 64 43 41 66 90 35 25 17 24 23 18 27 35 50 60 61 69 58 64 47 50 61
100 94 89 46 70 92 88 32 74 100 90 87 81 63 53 49 59 79 95 58 51 70 62 92 73 60 61 44 23 11 8 10 26 35 40 57 66 59 56 64 58 49 54 69
100 96 100 70 85 100 30 61 77 80 98 100 82 74 83 68 64 80 66 44 44 97 71 51 51 66 57 47 15 13 19 21 33 42 54 53 48 55 60 59 58 54 48 67
98 100 99 100 100 92 68 72 77 91 74 90 94 98 87 82 50 56 74 64 63 88 92 62 52 50 51 29 17 14 13 21 32 30 48 57 53 61 63 69 81 75 35 31
47 98 98 100 100 99 58 78 96 94 85 100 99 95 85 89 76 82 93 81 65 58 72 64 60 38 36 45 29 15 13 16 15 14 25 38 34 36 57 34 18 24 30 30
10 40 36 98 99 96 70 77 99 100 79 99 100 91 86 84 77 86 75 87 44 58 71 54 58 91 96 51 26 17 14 16 13 13 14 23 27 26 20 17 21 29 34 26
42 31 18 72 97 78 94 100 90 90 93 88 96 86 86 80 76 80 71 52 63 82 66 53 62 68 60 21 23 26 13 10 11 13 16 21 22 21 19 23 30 36 29 20
66 35 39 86 81 99 100 99 100 93 100 89 94 94 91 77 80 78 85 82 62 61 52 51 78 97 61 24 23 36 23 12 10 11 12 12 15 20 23 32 35 26 20 19
50 83 95 96 98 100 97 99 100 97 98 98 91 92 77 74 86 80 82 82 82 83 81 99 74 43 29 28 28 44 34 17 11 10 11 12 17 23 28 26 21 20 20 21
79 95 94 91 85 99 95 92 98 100 100 96 91 85 98 98 88 73 75 90 98 96 97 76 66 46 36 30 31 48 52 33 18 14 13 14 16 18 19 19 20 21 23 26
79 84 100 98 95 86 72 74 94 100 99 93 95 98 95 94 99 100 100 99 96 91 88 86 75 69 62 63 51 40 45 40 26 20 18 18 19 21 23 24 26 28 42 60

GFSCGP_500_rhum_051.txt.gz
RH
54 76 75 98 96 74 51 45 28 18 32 36 71 58 52 43 44 41 38 31 14 28 41 37 42 30 29 28 52 51 52 95 100 63 96 56 65 98 96 93 98 100 91 95
55 55 99 99 81 86 56 50 36 19 31 67 59 56 53 47 52 37 48 19 27 13 12 14 12 14 22 29 44 43 79 88 77 82 83 80 80 96 97 97 100 99 95 97
46 64 99 83 68 73 66 56 42 15 26 42 39 58 54 47 58 53 49 20 21 26 12 10 10 13 22 23 16 34 30 32 34 39 56 63 79 95 94 96 82 84 100 93
45 58 87 71 66 71 69 58 52 20 11 17 49 28 46 36 49 64 51 35 27 27 26 21 12 16 18 20 11 10 11 15 17 23 26 35 49 56 78 67 66 82 82 78
54 63 72 87 82 82 69 64 63 43 12 9 37 30 29 34 51 61 64 84 55 36 28 27 28 23 12 10 10 10 9 10 11 20 24 26 30 32 32 37 41 41 42 42
69 75 80 81 86 80 76 68 65 52 16 14 19 24 23 30 47 75 70 64 61 32 34 29 31 30 31 42 32 13 11 14 19 20 30 40 42 38 47 57 61 66 60 64
62 54 67 80 68 75 70 72 61 48 28 18 20 22 22 30 26 59 59 56 37 26 25 30 33 32 31 30 42 50 44 35 32 30 30 29 37 48 58 64 64 61 54 50
62 69 71 76 62 72 78 75 67 62 48 18 18 15 20 26 24 25 51 57 42 39 40 42 38 32 31 42 44 38 50 47 38 30 21 18 19 19 24 72 70 46 39 43
42 47 71 75 83 84 80 80 78 69 60 23 14 11 16 27 41 33 50 59 35 35 40 42 32 29 34 43 59 51 41 41 58 50 34 26 23 19 19 22 42 52 41 27
28 29 57 75 74 78 83 90 84 73 62 35 18 14 21 23 51 51 49 39 44 43 42 39 29 31 32 49 67 84 74 78 72 66 57 69 82 37 24 24 34 48 80 49
22 27 49 74 67 73 75 86 81 77 64 36 23 19 23 22 44 63 80 57 48 59 53 41 35 30 24 26 67 75 66 92 98 95 93 88 77 92 64 67 85 88 82 97
12 18 26 41 77 79 84 90 93 84 74 54 38 28 29 39 42 62 71 75 76 52 60 59 41 31 25 26 24 48 48 64 64 78 95 98 87 87 96 98 94 99 98 98
12 12 16 42 60 76 66 78 84 73 74 58 49 32 38 43 51 75 77 79 53 49 35 51 64 41 32 27 41 28 33 33 40 40 54 68 83 97 96 98 98 95 91 98
16 13 11 15 41 69 74 98 91 85 77 75 57 48 35 34 39 34 36 34 60 42 50 83 78 54 43 47 52 50 28 23 27 29 23 34 67 69 61 75 76 65 80 67
29 19 16 11 20 59 59 69 91 86 86 92 76 67 49 44 30 21 22 45 59 74 79 68 71 72 56 66 60 44 28 21 18 22 25 18 35 51 66 83 62 60 79 72
100 56 30 19 27 60 75 42 46 77 91 94 100 81 80 60 53 45 26 18 22 31 35 67 45 37 53 48 79 84 79 29 18 14 15 16 15 34 54 69 77 93 89 82
71 94 100 38 48 54 42 58 90 86 81 98 95 99 97 79 69 55 39 37 29 25 53 47 64 68 69 62 78 83 77 58 23 14 14 15 35 50 56 64 88 88 74 73
99 98 99 64 93 99 54 57 83 99 100 100 98 99 100 95 74 62 53 43 53 55 69 66 56 65 89 66 64 61 83 69 31 19 17 20 46 59 69 76 64 71 81 80
17 53 45 89 76 91 48 71 99 92 72 96 94 93 86 100 78 78 70 62 63 65 74 54 58 68 67 55 47 50 54 61 27 18 17 25 40 49 58 71 69 64 72 82
19 11 12 12 26 80 98 100 100 100 67 80 72 79 88 100 66 64 79 79 99 78 59 89 96 77 40 38 33 41 55 43 30 21 23 34 40 45 50 56 66 65 75 91
22 29 19 10 19 52 98 100 100 97 69 98 94 82 84 86 86 88 88 76 89 92 94 89 96 92 48 56 64 77 69 82 43 28 25 18 22 33 37 27 28 34 32 32
22 27 38 42 39 51 68 97 100 87 83 84 84 100 80 78 78 76 78 82 82 85 95 75 66 66 70 87 60 61 66 51 31 22 29 23 12 11 11 14 19 22 23 21
26 26 40 68 84 43 33 71 98 100 100 95 59 85 100 95 94 99 98 99 97 96 84 82 63 50 73 86 72 69 79 82 54 23 24 28 29 17 11 11 15 19 20 22
38 37 43 77 53 76 100 69 93 94 100 100 91 68 80 96 100 94 100 93 99 96 89 97 74 67 87 100 100 93 63 44 34 30 32 45 46 32 19 14 14 17 21 25
48 43 46 43 49 100 100 80 68 75 97 99 99 100 97 96 88 99 99 98 98 96 96 97 92 87 82 100 97 88 67 62 56 44 40 50 55 50 38 25 18 19 20 22
54 48 51 67 69 91 100 94 74 99 94 93 94 95 96 100 99 96 100 100 98 97 100 99 96 100 100 97 92 95 95 91 88 81 72 61 50 43 37 30 24 23 24 25

GFSCGP_500_rhum_057.txt.gz
RH
87 71 57 61 88 90 80 71 56 62 63 49 39 32 21 25 50 56 39 39 36 26 16 34 33 21 18 17 27 30 50 45 46 44 61 62 98 94 97 94 91 98 98 84
77 54 75 76 82 60 77 79 66 80 78 64 43 41 27 21 55 60 40 39 43 25 22 13 11 14 10 15 19 30 52 44 46 34 39 56 74 94 96 75 65 84 93 94
84 89 72 90 88 55 75 71 92 94 81 65 42 47 38 25 30 49 39 48 40 21 20 21 15 11 12 17 17 22 53 59 68 94 100 89 58 67 84 92 69 84 98 97
87 89 76 84 85 62 65 88 94 80 90 68 45 34 47 24 18 32 39 55 33 24 21 19 25 14 13 13 14 10 26 42 63 94 98 93 83 95 85 89 90 93 97 97
81 90 74 70 84 81 80 100 91 76 70 58 54 46 49 26 22 26 37 52 40 38 26 21 19 23 18 14 9 9 9 16 26 36 50 59 63 76 100 86 90 97 96 96
97 94 82 85 97 96 76 96 77 73 72 48 55 56 46 33 24 22 26 44 46 46 32 24 22 21 22 22 19 12 8 8 8 13 22 23 20 54 88 85 97 96 93 86
99 95 94 90 88 89 77 69 77 68 55 41 67 70 48 40 24 27 24 35 41 46 31 20 20 22 24 24 23 23 25 25 18 11 9 15 21 25 36 52 68 64 70 61
97 97 97 96 90 94 97 82 87 91 68 73 70 61 56 57 27 27 32 34 42 49 31 24 21 24 28 26 25 28 32 30 32 28 28 25 23 27 30 35 43 52 58 55
85 86 96 98 97 96 92 79 95 90 84 81 56 55 62 65 50 20 26 28 51 54 47 58 52 30 28 27 25 23 30 53 36 32 33 30 26 23 22 28 40 50 56 56
97 64 88 98 94 92 88 100 99 93 88 82 65 63 63 72 76 26 20 29 35 50 53 45 42 37 43 31 27 25 36 58 66 58 29 37 43 37 35 34 28 21 20 46
60 74 81 96 94 100 100 96 90 90 84 80 73 59 66 72 71 32 20 43 36 35 60 64 58 61 56 32 29 28 27 58 72 72 70 67 96 90 65 74 72 77 71 40
20 17 45 97 97 98 96 95 96 95 98 94 83 66 71 67 85 41 26 32 64 59 75 85 79 68 60 48 39 42 28 23 30 53 63 67 66 85 86 88 94 94 88 97
69 46 24 29 57 89 95 90 87 85 82 70 73 67 68 72 91 89 59 44 69 87 77 79 85 75 72 61 54 56 44 32 27 31 36 38 39 57 86 96 98 98 94 89
35 48 52 54 39 38 42 52 59 62 64 66 64 74 82 73 81 93 97 81 47 59 72 75 92 93 80 56 58 58 55 54 46 37 34 38 37 28 30 39 39 56 92 98
32 11 16 32 48 56 46 57 64 61 66 66 71 69 74 69 74 80 93 95 80 62 64 68 70 75 61 65 64 64 81 79 66 53 50 45 39 41 29 22 24 26 26 23
14 27 11 9 15 23 28 36 52 61 63 64 71 72 70 79 70 67 83 97 97 92 76 59 44 33 52 49 65 76 88 85 61 51 62 60 59 64 50 42 29 21 11 9
59 42 47 27 16 16 9 18 47 57 70 79 87 87 79 84 76 82 97 97 99 97 95 91 68 74 51 46 63 61 61 59 74 67 65 98 99 87 75 64 56 46 20 13
32 29 24 52 100 59 40 53 39 45 44 56 82 84 78 60 62 78 100 99 94 97 93 96 98 84 67 58 55 73 76 52 65 79 76 66 71 79 72 62 49 46 23 14
15 32 78 69 74 47 50 89 100 100 99 97 56 37 39 37 29 62 92 81 84 79 97 92 93 93 82 71 91 92 83 71 70 82 62 63 78 62 51 52 58 46 22 18
12 20 83 82 82 73 84 95 99 87 89 78 90 70 36 35 31 39 56 61 71 77 84 92 96 95 97 98 97 93 94 94 81 87 76 69 63 88 100 68 84 68 28 31
33 32 28 26 25 21 21 16 17 23 37 54 52 71 60 62 60 42 52 62 61 66 79 83 86 95 98 99 98 98 98 98 95 96 79 69 67 54 63 98 94 82 44 39
40 32 30 26 23 22 23 25 25 24 22 24 32 50 62 42 61 76 80 100 84 71 79 84 89 93 93 96 98 99 90 97 99 96 95 78 65 67 80 95 100 78 68 59
29 30 29 26 22 20 20 18 18 17 19 23 20 19 25 46 51 78 83 100 73 91 78 68 69 85 96 94 91 90 87 89 86 87 89 95 86 74 100 89 82 66 52 49
28 26 24 23 26 29 24 25 29 30 26 31 32 24 34 35 28 69 73 94 100 95 94 74 79 99 98 86 85 95 97 98 95 94 89 87 94 99 95 95 100 89 97 100
41 36 35 30 32 35 34 33 33 36 36 28 20 39 78 90 65 45 71 97 98 100 100 100 86 100 99 98 90 95 89 98 99 99 90 85 100 92 94 96 94 99 94 95
47 45 42 38 41 47 49 44 45 34 40 35 24 36 59 92 100 80 92 84 85 98 100 98 100 100 100 96 100 88 86 93 93 95 100 94 96 98 99 98 96 100 100 93

GFSCGP_500_rhum_060.txt.gz
RH
98 92 72 76 75 81 88 76 80 85 73 65 55 49 37 31 26 30 37 38 38 31 31 18 15 19 20 11 9 18 24 45 46 41 41 50 96 97 98 98 98 98 97 100
88 73 99 94 93 95 86 74 78 89 82 67 67 47 43 44 24 27 38 43 38 35 31 17 19 15 14 12 9 15 44 43 51 33 47 45 85 97 97 97 99 98 98 96
84 98 97 87 100 96 88 84 96 100 78 71 64 44 50 50 36 29 44 37 38 41 32 17 18 18 16 14 9 12 44 44 48 39 38 76 48 86 96 96 95 94 95 96
84 98 94 88 100 98 80 99 100 96 86 78 59 51 46 59 48 24 40 32 35 41 30 19 17 16 16 12 10 8 13 49 59 51 59 70 87 78 95 97 97 94 95 91
96 100 97 94 100 95 90 94 100 98 76 69 69 56 52 53 49 25 30 30 27 34 38 20 16 15 15 15 17 11 7 8 26 50 80 85 94 97 90 88 81 83 88 95
99 97 92 88 99 98 96 100 100 87 91 63 73 68 47 60 52 26 22 19 17 30 49 42 17 16 16 16 16 15 14 7 6 8 14 24 39 52 69 86 98 98 94 96
99 98 99 92 94 96 90 94 99 86 80 64 66 66 52 66 57 28 23 20 20 28 41 57 22 19 20 21 21 19 18 20 20 8 6 9 14 19 35 80 97 98 91 100
96 96 97 98 95 100 97 90 96 88 86 76 72 66 57 77 64 41 23 25 25 30 40 43 21 20 23 23 23 19 19 23 33 27 22 10 12 18 23 26 71 86 84 80
100 98 96 97 96 97 98 83 98 96 94 84 84 68 59 74 75 65 28 26 30 30 47 46 40 32 42 28 25 22 21 20 35 41 25 26 23 18 17 23 32 39 45 46
97 97 96 97 96 96 89 93 98 97 94 97 85 77 67 71 84 72 50 22 26 29 46 57 54 44 44 34 40 26 23 26 37 55 53 27 27 27 28 23 20 19 19 19
99 99 98 86 87 100 100 94 93 97 99 100 100 98 67 78 84 77 55 28 31 38 59 59 59 48 38 56 56 34 29 28 25 28 32 57 48 55 61 66 50 52 50 46
89 98 99 98 70 85 96 95 96 100 100 100 100 100 79 76 82 76 54 33 52 53 49 50 59 59 46 59 52 44 37 40 29 30 21 31 43 51 49 71 70 72 60 70
97 80 93 89 86 81 92 94 97 97 100 95 87 91 83 77 75 96 57 45 57 80 90 92 95 92 65 58 65 66 56 50 48 34 37 26 30 31 33 47 66 72 86 80
65 93 56 52 57 72 83 99 98 98 94 96 89 85 84 87 94 93 93 58 53 80 84 97 98 94 86 82 75 74 56 59 58 46 50 44 41 43 36 28 25 24 32 27
57 37 74 87 34 31 48 58 69 69 88 92 91 80 82 76 84 87 85 99 91 65 67 78 86 95 94 96 100 93 77 69 61 53 54 63 61 53 45 31 30 27 29 36
31 78 46 40 66 95 94 79 74 70 73 75 71 73 68 77 73 77 78 79 93 94 73 62 93 95 100 97 87 79 63 56 68 65 74 73 62 56 59 69 56 48 49 49
93 78 73 89 56 29 26 44 83 97 74 68 68 73 62 60 55 48 62 68 82 84 99 93 77 67 73 70 50 49 63 64 63 83 84 73 45 61 77 77 82 80 78 69
96 97 93 92 79 61 42 36 32 34 38 32 44 46 38 39 46 60 54 60 66 72 83 90 98 96 92 76 73 60 44 54 75 95 82 66 60 68 79 85 86 90 96 92
72 89 100 100 94 60 40 63 100 79 74 81 48 32 36 43 42 56 37 35 35 40 45 69 82 91 97 97 95 95 79 61 75 82 85 63 79 84 76 48 31 31 47 57
36 54 63 60 63 37 34 55 90 70 86 48 78 71 47 52 64 71 49 36 28 21 18 39 70 75 79 92 98 97 94 77 81 96 88 76 83 97 92 82 72 54 56 87
22 19 16 18 16 15 53 68 68 68 58 52 54 66 63 68 62 67 67 70 64 55 36 19 20 35 49 74 91 99 97 93 82 89 96 94 93 97 100 94 94 79 88 70
39 26 21 23 21 26 24 24 22 29 28 27 24 28 28 20 13 18 37 46 51 63 67 55 46 26 33 51 77 90 97 98 94 95 94 97 94 100 100 100 92 99 81 76
59 50 44 39 36 30 25 26 23 19 18 16 15 16 17 18 18 14 11 11 19 49 48 66 81 83 62 66 72 66 79 95 98 90 93 100 100 100 99 100 100 93 95 83
44 41 35 35 30 26 22 20 21 20 18 16 15 13 12 12 18 19 15 13 14 19 31 65 72 67 70 78 78 66 66 89 94 97 98 97 97 98 96 90 83 99 100 100
38 35 34 32 33 27 24 24 24 24 23 22 21 18 14 13 11 18 35 57 53 39 86 42 62 100 98 83 84 88 94 89 92 89 95 96 87 93 93 87 80 76 86 95
50 47 41 37 41 42 33 41 36 34 32 31 32 29 24 15 13 15 37 58 89 87 100 80 66 99 99 100 97 90 82 73 76 97 94 94 100 96 96 100 96 94 84 83